CRK216 VHHH-ZSNJ

Flight info

Callsign CRK216
Flight time N/A
Altitude 35000
Route LEKEN1X/07R LEKEN V601 DOTMI/K0859S1070 A470 EMRID W135 GOSRO
Aircraft A320/M-SDE3FGHIRWY/LB1

Departure

Time N/A
Airport Hong Kong International Airport (VHHH)

Arrival

Time 2026-04-27 13:25
Airport Nanjing Lukou International Airport (ZSNJ)
Time Latitude Longitude Altitude Speed Heading
2026-04-27 12:13 25.73924 119.37436 35069 ft 480 kts 28°
2026-04-27 12:13 25.79876 119.40499 35092 ft 467 kts 11°
2026-04-27 12:14 25.86098 119.42586 35096 ft 467 kts 11°
2026-04-27 12:14 25.92315 119.44699 35094 ft 467 kts 12°
2026-04-27 12:15 25.98495 119.46812 35095 ft 467 kts 12°
2026-04-27 12:15 26.04718 119.48939 35085 ft 467 kts 11°
2026-04-27 12:16 26.10942 119.51057 35084 ft 467 kts 11°
2026-04-27 12:16 26.17158 119.53171 35086 ft 467 kts 11°
2026-04-27 12:17 26.23382 119.54782 35082 ft 457 kts 359°
2026-04-27 12:17 26.29693 119.54929 35095 ft 453 kts 355°
2026-04-27 12:18 26.35989 119.54995 35090 ft 453 kts 355°
2026-04-27 12:18 26.42297 119.55061 35089 ft 453 kts 355°
2026-04-27 12:19 26.48601 119.55101 35091 ft 452 kts 355°
2026-04-27 12:19 26.54907 119.55132 35108 ft 453 kts 355°
2026-04-27 12:20 26.61134 119.55164 35098 ft 453 kts 355°
2026-04-27 12:20 26.67437 119.55206 35098 ft 453 kts 355°
2026-04-27 12:21 26.73754 119.55252 35100 ft 453 kts 355°
2026-04-27 12:21 26.80061 119.55292 35113 ft 453 kts 355°
2026-04-27 12:22 26.86373 119.55323 35110 ft 454 kts 355°
2026-04-27 12:22 26.92692 119.55366 35103 ft 454 kts 355°
2026-04-27 12:23 26.98970 119.55409 35107 ft 454 kts 355°
2026-04-27 12:23 27.05294 119.55447 35122 ft 454 kts 355°
2026-04-27 12:24 27.11615 119.55486 35108 ft 454 kts 355°
2026-04-27 12:24 27.17944 119.55525 35113 ft 455 kts 355°
2026-04-27 12:25 27.24273 119.55565 35116 ft 455 kts 355°
2026-04-27 12:25 27.30606 119.55596 35129 ft 455 kts 355°
2026-04-27 12:26 27.36946 119.55605 35118 ft 455 kts 355°
2026-04-27 12:26 27.43282 119.55610 35114 ft 456 kts 355°
2026-04-27 12:27 27.49638 119.55631 35112 ft 456 kts 355°
2026-04-27 12:27 27.55984 119.55674 35113 ft 456 kts 355°
2026-04-27 12:28 27.62341 119.55713 35115 ft 457 kts 356°
2026-04-27 12:28 27.68657 119.55755 35112 ft 457 kts 356°
2026-04-27 12:29 27.75016 119.55790 35112 ft 457 kts 355°
2026-04-27 12:29 27.81384 119.55821 35104 ft 457 kts 355°
2026-04-27 12:30 27.87754 119.55857 35098 ft 457 kts 356°
2026-04-27 12:30 27.94119 119.55902 35098 ft 457 kts 356°
2026-04-27 12:31 28.00484 119.55994 35092 ft 458 kts 356°
2026-04-27 12:31 28.06859 119.56113 35091 ft 458 kts 356°
2026-04-27 12:32 28.13231 119.56258 35100 ft 458 kts 357°
2026-04-27 12:32 28.19618 119.56606 35082 ft 459 kts 358°
2026-04-27 12:33 28.26010 119.57024 35076 ft 459 kts 358°
2026-04-27 12:33 28.32391 119.57403 35072 ft 459 kts 358°
2026-04-27 12:34 28.38771 119.57746 35070 ft 459 kts 357°
2026-04-27 12:34 28.45152 119.58095 35066 ft 459 kts 358°
2026-04-27 12:35 28.51497 119.58473 35064 ft 459 kts 358°
2026-04-27 12:35 28.57878 119.58874 35065 ft 459 kts 358°
2026-04-27 12:36 28.64267 119.59275 35075 ft 459 kts 357°
2026-04-27 12:36 28.70649 119.59674 35064 ft 459 kts 357°
2026-04-27 12:37 28.77034 119.60069 35063 ft 459 kts 357°
2026-04-27 12:37 28.83424 119.60457 35054 ft 459 kts 357°
2026-04-27 12:38 28.89810 119.60855 35061 ft 459 kts 357°
2026-04-27 12:38 28.96187 119.61254 35059 ft 459 kts 357°
2026-04-27 12:39 29.02570 119.61651 35047 ft 458 kts 357°
2026-04-27 12:39 29.08939 119.62047 35045 ft 458 kts 357°
2026-04-27 12:40 29.15307 119.62437 35050 ft 458 kts 357°
2026-04-27 12:40 29.20597 119.62753 35048 ft 458 kts 357°
2026-04-27 12:41 29.26970 119.63141 35046 ft 458 kts 357°
2026-04-27 12:41 29.34371 119.63594 35058 ft 458 kts 357°
2026-04-27 12:42 29.39709 119.63923 35048 ft 459 kts 357°
2026-04-27 12:42 29.46092 119.64320 35044 ft 460 kts 357°
2026-04-27 12:43 29.52478 119.64967 35038 ft 466 kts
2026-04-27 12:43 29.58557 119.67685 35056 ft 481 kts 26°
2026-04-27 12:44 29.64148 119.71965 35042 ft 482 kts 29°
2026-04-27 12:44 29.69729 119.76287 35044 ft 484 kts 29°
2026-04-27 12:45 29.75322 119.80622 35041 ft 485 kts 29°
2026-04-27 12:45 29.80917 119.84971 35053 ft 486 kts 29°
2026-04-27 12:46 29.86521 119.89334 35044 ft 486 kts 29°
2026-04-27 12:46 29.92130 119.93697 35040 ft 486 kts 29°
2026-04-27 12:47 29.97743 119.98058 35031 ft 487 kts 29°
2026-04-27 12:47 30.03374 120.02448 35059 ft 487 kts 29°
2026-04-27 12:48 30.08987 120.06836 35035 ft 488 kts 29°
2026-04-27 12:48 30.14605 120.11235 35043 ft 488 kts 29°
2026-04-27 12:49 30.20235 120.15645 35045 ft 488 kts 29°
2026-04-27 12:49 30.25883 120.20019 35038 ft 486 kts 24°
2026-04-27 12:49 30.28919 120.21611 35034 ft 475 kts 11°
2026-04-27 12:50 30.32063 120.22415 35037 ft 464 kts 359°
2026-04-27 12:50 30.35252 120.22479 35035 ft 453 kts 348°
2026-04-27 12:50 30.38319 120.21834 35033 ft 443 kts 337°
2026-04-27 12:50 30.41153 120.20545 35028 ft 434 kts 326°
2026-04-27 12:51 30.43682 120.18690 35025 ft 427 kts 318°
2026-04-27 12:51 30.48449 120.14564 35038 ft 428 kts 318°
2026-04-27 12:52 30.53254 120.10467 35047 ft 429 kts 319°
2026-04-27 12:52 30.58089 120.06406 35049 ft 429 kts 319°
2026-04-27 12:53 30.65332 120.00295 35051 ft 429 kts 319°
2026-04-27 12:53 30.70145 119.96205 35052 ft 429 kts 318°
2026-04-27 12:54 30.74956 119.92112 35048 ft 428 kts 319°
2026-04-27 12:54 30.79767 119.88010 35067 ft 428 kts 318°
2026-04-27 12:55 30.84554 119.83894 35068 ft 427 kts 318°
2026-04-27 12:55 30.89327 119.79778 35072 ft 426 kts 318°
2026-04-27 12:56 30.94100 119.75678 35063 ft 426 kts 318°
2026-04-27 12:56 30.98859 119.71584 35065 ft 425 kts 318°
2026-04-27 12:57 31.03613 119.67488 35062 ft 425 kts 318°
2026-04-27 12:57 31.08366 119.63379 34966 ft 424 kts 318°
2026-04-27 12:58 31.10700 119.61361 34730 ft 422 kts 318°
2026-04-27 12:58 31.13062 119.59315 34494 ft 422 kts 318°
2026-04-27 12:58 31.15422 119.57268 34262 ft 423 kts 317°
2026-04-27 12:58 31.17786 119.55217 34028 ft 424 kts 318°
2026-04-27 12:59 31.20157 119.53161 33766 ft 425 kts 317°
2026-04-27 12:59 31.22535 119.51098 33530 ft 426 kts 317°
2026-04-27 12:59 31.24909 119.49037 33264 ft 427 kts 317°
2026-04-27 12:59 31.27301 119.46959 32997 ft 428 kts 317°
2026-04-27 13:00 31.29695 119.44877 32740 ft 429 kts 317°
2026-04-27 13:00 31.32089 119.42794 32489 ft 430 kts 317°
2026-04-27 13:00 31.34494 119.40699 32229 ft 431 kts 317°
2026-04-27 13:00 31.36901 119.38602 31663 ft 432 kts 317°
2026-04-27 13:01 31.39330 119.36486 30584 ft 437 kts 317°
2026-04-27 13:01 31.41780 119.34354 29415 ft 441 kts 317°
2026-04-27 13:01 31.44246 119.32206 28177 ft 443 kts 317°
2026-04-27 13:01 31.46718 119.30047 27009 ft 445 kts 317°
2026-04-27 13:02 31.49207 119.27867 25865 ft 447 kts 317°
2026-04-27 13:02 31.51699 119.25682 24746 ft 449 kts 318°
2026-04-27 13:02 31.54186 119.23512 23680 ft 440 kts 319°
2026-04-27 13:02 31.56877 119.21846 22487 ft 441 kts 338°
2026-04-27 13:03 31.59941 119.21498 21780 ft 450 kts
2026-04-27 13:03 31.62969 119.22585 21661 ft 466 kts 24°
2026-04-27 13:03 31.65598 119.24887 21376 ft 479 kts 43°
2026-04-27 13:03 31.67512 119.28094 20574 ft 483 kts 64°
2026-04-27 13:04 31.68422 119.31879 19659 ft 485 kts 85°
2026-04-27 13:04 31.68280 119.35831 18733 ft 484 kts 99°
2026-04-27 13:04 31.67834 119.39689 17799 ft 483 kts 98°
2026-04-27 13:04 31.67384 119.43564 17052 ft 476 kts 98°
2026-04-27 13:05 31.66940 119.47390 16104 ft 464 kts 98°
2026-04-27 13:05 31.66514 119.51059 15360 ft 443 kts 98°
2026-04-27 13:05 31.66108 119.54580 14651 ft 427 kts 99°
2026-04-27 13:05 31.65706 119.58057 13966 ft 430 kts 100°
2026-04-27 13:06 31.65486 119.61541 13535 ft 426 kts 87°
2026-04-27 13:06 31.66047 119.64877 13399 ft 408 kts 71°
2026-04-27 13:06 31.67205 119.67775 13260 ft 378 kts 55°
2026-04-27 13:06 31.68808 119.70065 13088 ft 351 kts 40°
2026-04-27 13:07 31.70705 119.71743 12601 ft 335 kts 25°
2026-04-27 13:07 31.72808 119.72810 12002 ft 324 kts 11°
2026-04-27 13:07 31.74976 119.73276 11747 ft 313 kts 360°
2026-04-27 13:07 31.77133 119.73255 11094 ft 308 kts 348°
2026-04-27 13:08 31.79189 119.72709 10641 ft 296 kts 336°
2026-04-27 13:08 31.81048 119.71726 10582 ft 292 kts 325°
2026-04-27 13:08 31.82698 119.70368 10524 ft 288 kts 314°
2026-04-27 13:08 31.84080 119.68678 10472 ft 286 kts 304°
2026-04-27 13:09 31.85145 119.66737 10407 ft 281 kts 293°
2026-04-27 13:09 31.85871 119.64630 10347 ft 277 kts 283°
2026-04-27 13:09 31.86254 119.62417 10290 ft 275 kts 273°
2026-04-27 13:09 31.86290 119.60182 10233 ft 273 kts 263°
2026-04-27 13:10 31.85978 119.57988 10177 ft 272 kts 253°
2026-04-27 13:10 31.85400 119.55877 10120 ft 271 kts 250°
2026-04-27 13:10 31.84801 119.53768 10063 ft 271 kts 251°
2026-04-27 13:10 31.84213 119.51682 10007 ft 268 kts 251°
2026-04-27 13:11 31.83628 119.49605 9864 ft 268 kts 251°
2026-04-27 13:11 31.83034 119.47509 9352 ft 271 kts 250°
2026-04-27 13:11 31.82440 119.45416 8924 ft 270 kts 250°
2026-04-27 13:11 31.81846 119.43322 8504 ft 269 kts 251°
2026-04-27 13:12 31.81253 119.41234 8092 ft 269 kts 251°
2026-04-27 13:12 31.80664 119.39154 7679 ft 268 kts 251°
2026-04-27 13:12 31.80081 119.37099 7481 ft 258 kts 251°
2026-04-27 13:12 31.79537 119.35177 7426 ft 244 kts 251°
2026-04-27 13:13 31.79007 119.33312 7370 ft 229 kts 252°
2026-04-27 13:13 31.78527 119.31626 7310 ft 208 kts 252°
2026-04-27 13:13 31.78088 119.30085 7296 ft 192 kts 252°
2026-04-27 13:13 31.77687 119.28680 7253 ft 171 kts 252°
2026-04-27 13:14 31.77327 119.27410 7202 ft 159 kts 252°
2026-04-27 13:14 31.76981 119.26196 7166 ft 153 kts 252°
2026-04-27 13:14 31.76649 119.25033 7132 ft 148 kts 252°
2026-04-27 13:14 31.76323 119.23890 7101 ft 147 kts 252°
2026-04-27 13:15 31.75999 119.22747 7070 ft 147 kts 252°
2026-04-27 13:15 31.75809 119.21579 7035 ft 147 kts 268°
2026-04-27 13:15 31.75939 119.20389 7003 ft 148 kts 285°
2026-04-27 13:15 31.76381 119.19292 6892 ft 151 kts 301°
2026-04-27 13:16 31.77103 119.18402 6688 ft 152 kts 319°
2026-04-27 13:16 31.77997 119.17743 6476 ft 151 kts 323°
2026-04-27 13:16 31.78894 119.17102 6254 ft 150 kts 323°
2026-04-27 13:16 31.79781 119.16468 6031 ft 149 kts 323°
2026-04-27 13:17 31.80662 119.15839 5812 ft 147 kts 324°
2026-04-27 13:17 31.81536 119.15216 5591 ft 146 kts 324°
2026-04-27 13:17 31.82403 119.14595 5385 ft 145 kts 324°
2026-04-27 13:17 31.83263 119.13980 5171 ft 144 kts 324°
2026-04-27 13:18 31.84114 119.13367 4985 ft 142 kts 321°
2026-04-27 13:18 31.84775 119.12532 4825 ft 140 kts 297°
2026-04-27 13:18 31.85056 119.11439 4659 ft 142 kts 274°
2026-04-27 13:18 31.84887 119.10300 4477 ft 144 kts 249°
2026-04-27 13:19 31.84370 119.09279 4232 ft 147 kts 243°
2026-04-27 13:19 31.83817 119.08237 3930 ft 151 kts 242°
2026-04-27 13:19 31.83261 119.07188 3689 ft 150 kts 242°
2026-04-27 13:19 31.82711 119.06153 3484 ft 148 kts 242°
2026-04-27 13:20 31.82180 119.05154 3297 ft 144 kts 242°
2026-04-27 13:20 31.81647 119.04150 3115 ft 145 kts 243°
2026-04-27 13:20 31.81112 119.03143 2929 ft 146 kts 243°
2026-04-27 13:20 31.80575 119.02132 2745 ft 145 kts 243°
2026-04-27 13:21 31.80037 119.01121 2555 ft 144 kts 243°
2026-04-27 13:21 31.79516 119.00140 2365 ft 143 kts 243°
2026-04-27 13:21 31.78986 118.99144 2180 ft 144 kts 243°
2026-04-27 13:21 31.78454 118.98142 1990 ft 145 kts 243°
2026-04-27 13:22 31.77918 118.97134 1801 ft 146 kts 243°
2026-04-27 13:22 31.77380 118.96124 1621 ft 146 kts 243°
2026-04-27 13:22 31.76844 118.95117 1419 ft 144 kts 243°
2026-04-27 13:22 31.76316 118.94126 1229 ft 143 kts 242°
2026-04-27 13:23 31.75962 118.93461 1105 ft 142 kts 242°
2026-04-27 13:23 31.75267 118.92157 871 ft 142 kts 241°
2026-04-27 13:23 31.74742 118.91171 687 ft 143 kts 240°
2026-04-27 13:23 31.74390 118.90504 577 ft 142 kts 240°
2026-04-27 13:24 31.73869 118.89539 387 ft 141 kts 239°
2026-04-27 13:24 31.73345 118.88555 200 ft 143 kts 240°
2026-04-27 13:24 31.72825 118.87566 61 ft 138 kts 241°
2026-04-27 13:24 31.72382 118.86742 55 ft 96 kts 238°
2026-04-27 13:25 31.72125 118.86251 60 ft 51 kts 247°
2026-04-27 13:25 31.72109 118.85976 57 ft 15 kts 308°
2026-04-27 13:25 31.72169 118.85973 54 ft 8 kts 41°
2026-04-27 13:25 31.72203 118.86035 58 ft 13 kts 58°
2026-04-27 13:26 31.72264 118.86148 57 ft 18 kts 57°
2026-04-27 13:26 31.72336 118.86283 55 ft 21 kts 58°
2026-04-27 13:26 31.72417 118.86432 52 ft 23 kts 58°
2026-04-27 13:26 31.72503 118.86593 55 ft 24 kts 58°
2026-04-27 13:27 31.72596 118.86765 55 ft 26 kts 57°
2026-04-27 13:27 31.72687 118.86935 56 ft 24 kts 58°
2026-04-27 13:27 31.72768 118.87035 53 ft 14 kts 354°
2026-04-27 13:27 31.72858 118.86972 52 ft 14 kts 330°
2026-04-27 13:28 31.72930 118.87024 55 ft 14 kts 57°
2026-04-27 13:28 31.72977 118.87115 53 ft 12 kts 59°
2026-04-27 13:28 31.73019 118.87193 55 ft 10 kts 57°
2026-04-27 13:28 31.73055 118.87258 52 ft 6 kts 57°
2026-04-27 13:29 31.73083 118.87276 52 ft 5 kts
2026-04-27 13:29 31.73125 118.87256 56 ft 7 kts 326°
2026-04-27 13:29 31.73154 118.87234 52 ft 0 kts 328°
2026-04-27 13:29 31.73154 118.87233 53 ft 0 kts 328°
2026-04-27 13:32 31.73154 118.87234 53 ft 0 kts 328°